User: anonymous   Login
Location: Columbia
(38.9520°N, 92.3340°W)
Time: 10:54:53
(UTC-05:00)
Language:

Cosmos 158 Rocket - Orbit

View from above orbital plane
View from above orbital plane
View from above satellite
View from above satellite

Ground track
Ground track

The orbit data is extracted from the following two-line orbital elements,

1 02802U 67045B   16120.22448426  .00000059  00000-0  24965-4 0  9990
2 02802  74.0128 217.2590 0066571  10.1964 350.0524 14.43574057569243
Epoch (UTC): 29 April 2016 05:23:15
Eccentricity: 0.0066571
inclination: 74.0128°
perigee height: 699 km
apogee height: 794 km
right ascension of ascending node: 217.2590°
argument of perigee: 10.1964°
revolutions per day: 14.43574057
mean anomaly at epoch: 350.0524°
orbit number at epoch: 56924

The dashed part of the orbit path shows where the satellite is in the earth's shadow,  

DLR